Flag for U.S.A. Weather past 2 weeks in Victorville, California, U.S.A.

Now
43 °F

Clear.


Feels Like: 36 °F
Forecast: 39 / 64 °F
Wind: 12 mph from South

Location: George Air Force Base / Victorvi

Current Time: Dec 22, 2014 at 6:57:33 AM

Latest Report: Dec 22, 2014 at 6:15 AM


Visibility: 10 mi

Pressure: 30.19 "Hg

Humidity: 93%

Dew point: 41 °F

Location of VictorvilleLocation

Historic Weather in Victorville — Graph

°F

Victorville temperature yesterday

Maximum temperature yesterday: 63 °F (at 2:15 PM)
Minimum temperature yesterday: 39 °F (at 5:55 AM)
Average temperature yesterday: 49 °F

Past Weeks' High & Low Weather Summary

 TemperatureHumidityPressure
High64 °F (Dec 9, 1:55 PM)100% (Dec 7, 6:35 AM)30.32 "Hg (Dec 7, 6:35 AM)
Low32 °F (Dec 14, 4:55 AM)32% (Dec 9, 2:55 PM)29.78 "Hg (Dec 12, 4:15 AM)
Average47 °F75%30.10 "Hg
* Reported Dec 7 5:15 AM — Dec 22 5:55 AM, Victorville, Weather by CustomWeather, © 2014

Note: Actual official high and low records may vary slightly from our data, if they occured in-between our weather recording intervals... More about our weather records

Advertising

Victorville weather history for previous 24 hours

 ConditionsComfort  
Time TempWeatherWind HumidityBarometerVisibility
5:55 AM
Dec 22
43 °FQuite cool.9 mph93%30.18 "Hg10 mi
5:15 AM43 °FQuite cool.7 mph93%30.18 "Hg10 mi
4:55 AM43 °FQuite cool.7 mph93%30.17 "Hg10 mi
4:35 AM45 °FQuite cool.6 mph93%30.17 "Hg10 mi
4:15 AM45 °FQuite cool.5 mph87%30.18 "Hg10 mi
3:55 AM45 °FQuite cool.No wind87%30.18 "Hg10 mi
3:15 AM46 °FCool.No wind87%30.18 "Hg10 mi
2:55 AM45 °FQuite cool.No wind93%30.18 "Hg10 mi
2:15 AM45 °FQuite cool.7 mph93%30.17 "Hg10 mi
1:55 AM43 °FQuite cool.8 mph93%30.17 "Hg10 mi
1:15 AM45 °FClear.7 mph93%30.18 "Hg10 mi
12:55 AM45 °FClear.6 mph93%30.18 "Hg10 mi
12:15 AM46 °FClear.6 mph93%30.18 "Hg10 mi
11:55 PM
Dec 21
46 °FClear.No wind87%30.19 "Hg10 mi
11:15 PM48 °FClear.6 mph87%30.19 "Hg10 mi
10:55 PM48 °FClear.7 mph87%30.19 "Hg10 mi
10:35 PM48 °FClear.5 mph82%30.20 "Hg10 mi
10:15 PM46 °FClear.No wind87%30.20 "Hg10 mi
9:55 PM48 °FClear.No wind82%30.20 "Hg10 mi
9:15 PM48 °FClear.3 mph82%30.19 "Hg10 mi
8:55 PM48 °FClear.No wind82%30.19 "Hg10 mi
8:15 PM52 °FClear.No wind77%30.19 "Hg10 mi
7:55 PM50 °FClear.No wind82%30.19 "Hg10 mi
7:35 PM50 °FClear.5 mph82%30.18 "Hg10 mi
7:15 PM52 °FClear.3 mph77%30.18 "Hg10 mi
6:55 PM52 °FClear.6 mph77%30.19 "Hg10 mi
6:15 PM52 °FClear.5 mph77%30.17 "Hg10 mi
5:55 PM52 °FClear.7 mph77%30.16 "Hg10 mi
5:35 PM54 °FClear.6 mph72%30.15 "Hg10 mi
5:15 PM54 °FClear.6 mph77%30.13 "Hg10 mi
4:55 PM55 °FClear.No wind72%30.13 "Hg10 mi
4:15 PM57 °FScattered clouds.9 mph67%30.13 "Hg10 mi
3:35 PM59 °FScattered clouds.8 mph63%30.13 "Hg10 mi
3:15 PM63 °FScattered clouds.12 mph52%30.12 "Hg10 mi
2:55 PM63 °FSunny.10 mph52%30.11 "Hg10 mi
2:15 PM63 °FScattered clouds.7 mph52%30.11 "Hg10 mi
1:15 PM61 °FScattered clouds.6 mph55%30.12 "Hg10 mi
12:55 PM61 °FScattered clouds.7 mph55%30.13 "Hg10 mi
12:35 PM61 °FScattered clouds.8 mph52%30.14 "Hg10 mi
12:15 PM59 °FScattered clouds.8 mph55%30.15 "Hg10 mi
11:55 AM57 °FScattered clouds.8 mph63%30.16 "Hg10 mi
11:15 AM55 °FScattered clouds.9 mph67%30.18 "Hg10 mi
10:55 AM55 °FScattered clouds.8 mph63%30.19 "Hg10 mi
10:15 AM52 °FScattered clouds.No wind72%30.20 "Hg10 mi
9:55 AM52 °FScattered clouds.3 mph72%30.20 "Hg10 mi
9:35 AM50 °FScattered clouds.3 mph76%30.20 "Hg10 mi
9:15 AM46 °FScattered clouds.9 mph87%30.20 "Hg10 mi
8:55 AM46 °FScattered clouds.8 mph87%30.21 "Hg10 mi
8:35 AM46 °FCool.8 mph82%30.21 "Hg10 mi
8:15 AM45 °FScattered clouds.7 mph87%30.21 "Hg10 mi
7:55 AM43 °FScattered clouds.8 mph87%30.20 "Hg10 mi
7:15 AM41 °FSunny.8 mph93%30.19 "Hg10 mi
6:55 AM41 °FSunny.7 mph93%30.19 "Hg10 mi
6:35 AM39 °FClear.9 mph93%30.19 "Hg10 mi
6:15 AM39 °FClear.7 mph93%30.21 "Hg10 mi
Weather by CustomWeather, © 2014

See weather overviewHow to use our weather pages